Regional Weather Roundup
Issued by NWS Jackson, KY

Home | Current Version | Previous Version | Graphics & Text | Print | Product List | Glossary On
Versions: 1 2 3 4 5 6 7 8 9 10 11 12 13 14 15 16 17 18 19 20 21 22 23 24 25 26 27 28 29 30 31 32 33 34 35 36 37 38 39 40 41 42 43 44 45 46 47 48 49 50
000
ASUS43 KJKL 222010
RWRJKL

EAST KENTUCKY HOURLY WEATHER ROUNDUP
NATIONAL WEATHER SERVICE JACKSON KY
400 PM EDT FRI MAY 22 2015

NOTE: "FAIR" INDICATES FEW OR NO CLOUDS BELOW 12,000 FEET WITH
NO SIGNIFICANT WEATHER AND/OR OBSTRUCTIONS TO VISIBILITY.

* THESE REPORTS ARE NOT UNDER NWS QUALITY CONTROL AND MAY NOT
  REPORT WEATHER SUCH AS PRECIPITATION AND FOG.

KYZ079-080-083-085-087-088-110-112-115-119-120-222100
...EASTERN KENTUCKY...

CITY           SKY/WX    TMP DP  RH WIND       PRES   REMARKS
JACKSON        SUNNY     68  42  38 VRB5      30.27S
LONDON         SUNNY     71  37  28 N5        30.27S
SOMERSET*      SUNNY     68  41  37 NW3       30.28F
MONTICELLO*    SUNNY     72  41  32 NW3       30.30F
MIDDLESBORO*   SUNNY     70  43  38 NW7       30.27S
HARLAN APT*    CLEAR     68  36  30 N6        30.27S
HAZARD APT*    CLEAR     70  43  37 NW7       30.27S
BLACK MTN*       N/A     57  41  54 N5          N/A
PIKEVILLE APT* SUNNY     66  45  45 CALM      30.26S
BIG SANDY*     PTCLDY    69  46  43 SW7       30.26S
MOREHEAD APT*  CLEAR     72  41  33 SW8G15    30.27S
$$

KYZ035-036-041-042-044-050-067-078-099-222100
...CENTRAL KENTUCKY...

CITY           SKY/WX    TMP DP  RH WIND       PRES   REMARKS
MT STERLING*   SUNNY     72  43  35 NW6       30.27S
FLEMING/MASON* SUNNY     72  45  37 W12       30.25S
DANVILLE*      SUNNY     72  41  33 W6        30.27F
RICHMOND*      SUNNY     70  43  37 W7        30.26F
LEXINGTON      SUNNY     71  42  35 SW6       30.25F
FRANKFORT      SUNNY     73  42  32 SW13G18   30.23F
$$

KYZ091>093-OHZ055-061-077-WVZ005-015-034-035-042-222100
...SOUTHERN OHIO/WEST VIRGINIA...

CITY           SKY/WX    TMP DP  RH WIND       PRES   REMARKS
COVINGTON      MOSUNNY   72  48  42 SW8G22    30.21F
COLUMBUS       PTSUNNY   68  48  48 N8        30.17S
DAYTON         MOSUNNY   75  44  33 W14       30.19S
WILMINGTON     MOSUNNY   71  43  36 SW16G23   30.19F
HUNTINGTON     MOSUNNY   71  42  35 W9G17     30.22S
CHARLESTON     MOSUNNY   71  44  37 W9G16     30.22S
PINEVILLE*     SUNNY     68  45  43 MISG      30.29F
BECKLEY        MOSUNNY   64  41  42 W9        30.25S
BLUEFIELD      MOSUNNY   64  42  44 W9        30.27S
$$

VAZ002-007-008-TNZ017-027-036-066-071-222100
...SOUTHWEST VIRGINIA/EAST TENNESSEE...

CITY           SKY/WX    TMP DP  RH WIND       PRES   REMARKS
WISE*          SUNNY     64  36  34 NW3       30.29S
JONESVILLE*    CLEAR     68  39  34 W3        30.28S
ABINGDON*      SUNNY     67  40  37 NW3       30.26S
BRISTOL        MOSUNNY   70  39  32 VRB5      30.25F
KNOXVILLE      MOSUNNY   72  38  29 NE9       30.24S
OAK RIDGE      SUNNY     74  41  30 VRB5      30.26F
CROSSVILLE     SUNNY     69  40  34 VRB7      30.28S
NASHVILLE      MOSUNNY   75  42  30 VRB3      30.26F
$$

...KEY TO REMARKS...
VSB - VISIBILITY IN MILES
WCI - WIND CHILL INDEX
HX  - HEAT INDEX

$$


USA.gov is the U.S. government's official web portal to all federal, state and local government web resources and services.